Terminal Aerodrome Forecast
Issued by NWS

Home | Current Version | Previous Version | Text Only | Print | Product List | Glossary On
Versions: 1 2 3 4 5 6 7 8 9 10 11 12 13 14 15 16 17 18 19 20 21 22 23
000
FTUS41 KOKX 131100 AAA
TAFSWF
TAF AMD
KSWF 131152Z 1312/1418 VRB03KT P6SM SCT025 BKN050 BKN090
      TEMPO 1312/1314 BKN025
     FM131400 23010KT P6SM SCT060 SCT120 BKN250
     FM131600 22010G18KT P6SM SCT060 BKN150
     FM132000 22013G21KT P6SM BKN050 BKN150
     FM132200 22010KT P6SM VCTS BKN050CB BKN100
     FM140300 22007KT 5SM BR BKN040 BKN080
     FM140600 20004KT 3SM BR SCT010 BKN025 BKN060
     FM141600 22007KT 6SM HZ SCT025 BKN050
      AMD NOT SKED=

USA.gov is the U.S. government's official web portal to all federal, state and local government web resources and services.